www.pogodaiklimat.ru

Погода и климат >> Архив погоды >> Канада >> Hat Island


ПОГОДА в Hat Island

  • Прогноз погоды в Hat Island
  • Монитор погоды в Hat Island
  • Климат города

АРХИВ ПОГОДЫ в Hat Island

Время (UTC), дата Ветер
(напр.,м/с)
 
Видим.   Явления Облачность Т
(С)
Тd
(С)
f
(%)
Тe
(С)
Тes
(С)
Комфортность P
(гПа)
Po
(гПа)
Тmin
(С)
Tmax
(С)
R
(мм)
R24
(мм)
S
(см)
03 14.10 СЗ 6 н/о 10/10 600 м
[]
-10.3 -13.7 76 -19 -19 1012.2 1007.4
09 14.10 СЗ 7 н/о 10/10 300 м
[]
-11.0 -13.3 83 -20 -20 1010.7 1005.9
12 14.10 СЗ 6 н/о 10/10 300 м
[]
-10.6 -13.1 82 -19 -19 1013.0 1008.2
15 14.10 З 5 н/о 10/10 300 м
[]
-10.3 -13.3 79 -18 -18 1010.8 1006.0
18 14.10 СЗ 2 н/о 10/10 600 м
[]
-9.7 -13.6 73 -14 -14 1010.3 1005.5
21 14.10 СВ 2 н/о 10/10 1000 м
[]
-8.9 -12.8 73 -12 -12 1010.0 1005.2
00 15.10 З 7 н/о 10/10 50 м
[]
-9.3 -10.8 89 -18 -18 1009.4 1004.6
06 15.10 Ю 5 н/о 10/10 300 м
[]
-10.7 -13.6 79 -19 -19 1007.9 1003.1
09 15.10 Ю 5 н/о 10/10 300 м
[]
-9.8 -11.5 87 -18 -18 1007.1 1002.4
12 15.10 Ю 6 н/о 10/10 300 м
[]
-8.6 -10.2 88 -17 -17 1005.6 1000.9
15 15.10 Ю 7 н/о 10/10 200 м
[]
-7.6 -8.7 92 -17 -17 1004.1 999.4
21 15.10 Ю 5 н/о 10/10 300 м
[]
-6.0 -7.2 91 -13 -13 1002.4 997.7
03 16.10 СЗ 8 н/о 10/10 200 м
[]
-8.9 -9.8 93 -19 -19 1003.3 998.6
09 16.10 З 5 н/о 10/10 1000 м
[]
-8.3 -11.7 76 -16 -16 1004.7 1000.0
12 16.10 ЮЗ 9 н/о 10/10 100 м
[]
-6.8 -8.5 88 -16 -16 1005.0 1000.3
18 16.10 СВ 3 н/о 10/10 300 м
[]
-6.9 -7.9 93 -12 -12 1006.3 1001.6
21 16.10 С 1 н/о 10/10 600 м
[]
-6.7 -8.8 85 -9 -9 1007.2 1002.5
00 17.10 ЮЗ 6 н/о 9/9 300 м
[]
-6.1 -7.2 92 -14 -14 1007.9 1003.2
03 17.10 ЮЗ 7 н/о 9/9 1500 м
[]
-8.6 -10.4 87 -18 -18 1008.1 1003.4
06 17.10 Ю 5 н/о ясно -10.0 -11.3 90 -18 -18 1008.1 1003.4
09 17.10 Ю 5 н/о 10/10 100 м
[]
-10.7 -11.1 97 -18 -18 1008.6 1003.9
12 17.10 Ю 7 н/о 5/5 200 м
[]
-11.3 -12.3 92 -21 -21 1007.8 1003.1
15 17.10 Ю 7 н/о 10/10 200 м
[]
-10.5 -11.5 92 -20 -20 1007.3 1002.5
18 17.10 Ю 8 н/о 9/9 300 м
[]
-9.7 -11.5 87 -19 -19 1007.7 1002.9
21 17.10 Ю 8 н/о 10/10 300 м
[]
-8.2 -11.1 80 -17 -17 1006.8 1002.1
00 18.10 Ю 8 н/о 10/10 300 м
[]
-8.4 -11.2 80 -18 -18 1006.8 1002.0
03 18.10 Ю 10 н/о 10/10 300 м
[]
-8.3 -10.9 81 -19 -19 1006.4 1001.7
06 18.10 Ю 10 н/о 10/10 300 м
[]
-7.7 -10.0 84 -18 -18 1005.9 1001.2
12 18.10 ЮВ 10 н/о 10/10 200 м
[]
-8.1 -9.0 93 -19 -19 1005.4 1000.7
15 18.10 ЮВ 10 н/о 10/10 200 м
[]
-8.0 -8.7 95 -19 -19 1005.2 1000.5
18 18.10 ЮВ 7 н/о 9/9 200 м
[]
-6.8 -8.1 90 -16 -16 1005.5 1000.8
21 18.10 ЮВ 6 н/о 10/10 200 м
[]
-6.4 -7.4 93 -15 -15 1005.8 1001.1
00 19.10 Ю 2 н/о 10/10 200 м
[]
-6.0 -6.9 93 -11 -11 1006.9 1002.2
03 19.10 З 1 н/о 10/10 200 м
[]
-5.7 -6.9 91 -8 -8 1006.8 1002.1
06 19.10 ЮЗ 2 н/о 10/10 300 м
[]
-5.5 -6.0 96 -9 -9 1007.3 1002.6
12 19.10 СЗ 5 н/о 10/10 300 м
[]
-5.7 -7.1 90 -13 -13 1008.6 1003.9
15 19.10 СЗ 3 н/о 10/10 200 м
[]
-6.6 -7.3 95 -12 -12 1008.9 1004.2
18 19.10 ЮЗ 5 н/о 10/10 100 м
[]
-5.9 -6.3 97 -13 -13 1009.2 1004.5
21 19.10 Ю 6 н/о 10/10 200 м
[]
-6.4 -7.2 94 -14 -14 1009.6 1004.9
00 20.10 Ю 7 н/о 10/10 100 м
[]
-5.3 -5.7 97 -14 -14 1009.1 1004.4
03 20.10 Ю 6 н/о 10/10 200 м
[]
-4.2 -4.8 96 -12 -12 1008.4 1003.7
06 20.10 Ю 6 н/о 10/10 200 м
[]
-5.7 -6.7 93 -14 -14 1008.2 1003.5
09 20.10 Ю 8 н/о 10/10 200 м
[]
-6.8 -7.7 93 -16 -16 1008.2 1003.5
12 20.10 Ю 8 н/о 10/10 200 м
[]
-5.9 -6.6 95 -15 -15 1008.1 1003.4
15 20.10 Ю 7 н/о 10/10 300 м
[]
-4.0 -4.9 93 -12 -12 1007.6 1002.9
18 20.10 Ю 7 н/о 10/10 300 м
[]
-3.6 -4.4 94 -12 -12 1007.0 1002.3
21 20.10 Ю 7 н/о 10/10 200 м
[]
-3.0 -3.7 95 -11 -11 1006.3 1001.6

 

Местоположение метеостанции Hat Island (Канада): широта 68.32 долгота -100.00 высота над уровнем моря 36 м.

В архиве по умолчанию представлена погода в Hat Island за последнюю неделю. Архивные данные за месяц целиком и за предыдущие месяцы, начиная с января 2011 года, Вы можете получить, выбрав интересующий диапазон дат из раскрывающегося списка и нажав кнопку "Ввод!".

Внимание! Время в таблицах - всемирное. Для получения местного времени необходимо прибавить поправку, которая в Hat Island равна -6 ч.

Смотрите также архив погоды в соседних городах и на ближайших метеорологических станциях:

Погода в Gjoa Haven Climate (Канада) (173 км)
Погода в Ellice River AWS (Канада) (198 км)
Погода в Cambridge Bay Gsn (Канада) (223 км)
Погода в Cambridge Bay Arpt (Канада) (223 км)
Погода в Shepherd Bay (Канада) (273 км)
Погода в Spence bay (Канада) (291 км)
Погода в Back River MAPS (Канада) (291 км)
Погода в Cape Peel West (Канада) (325 км)
Погода в Robertson Lake (Канада) (373 км)
Погода в Kugaaruk climate (Канада) (417 км)

Пояснения к столбцам:

Ветер - указаны скорость ветра в м/с - средняя за 10 мин, порывы в срок и между сроками (в фигурных скобках) и направление, откуда дует ветер: С - северный, СВ - северо-восточный, В - восточный, ЮВ - юго-восточный, Ю - южный, ЮЗ - юго-западный, З - западный, СЗ - северо-западный.
Видимость - горизонтальная дальность видимости в метрах или километрах. При видимости от 1 до 10 км при отсутствии осадков обычно наблюдается дымка, при ухудшении видимости до 1 км и менее - туман. В сухую погоду видимость может ухудшаться дымом, пылью или мглою.
Явления - указаны атмосферные явления, наблюдавшиеся в срок или в последний час перед сроком; фигурными скобками обозначены явления, наблюдавшиеся между сроками (за 1-3 часа до срока); квадратными скобками обозначены град или гололедные отложения с указанием их диаметра в мм.
Облачность - указаны через наклонную черту общая и нижняя облачность в баллах и высота нижней границы облаков в метрах; квадратными скобками обозначены формы облаков: Ci - перистые, Cs - перисто-слоистые, Cc - перисто-кучевые, Ac - высококучевые, As - высокослоистые, Sc - слоисто-кучевые, Ns - слоисто-дождевые, Cu - кучевые, Cb - кучево-дождевые. Подробнее классификацию облаков см. в Атласе облаков (PDF).
T - Температура воздуха - температура, измеренная на высоте 2 м над землей.
Td - Температура точки росы - температура, при понижении до которой содержащийся в воздухе водяной пар достигнет насыщения.
f - Относительная влажность воздуха - влажноcть воздуха, измеренная на высоте 2 м над землей.
Te - Эффективная температура - температура, которую ощущает одетый по сезону человек в тени. Характеристика душности погоды. При расчете учитывается влияние влажности воздуха и скорости ветра на теплоощущения человека.
Tes - Эффективная температура на солнце - температура, которую ощущает человек, с поправкой на солнечный нагрев. Характеристика знойности погоды. Зависит от высоты солнца над горизонтом, облачности и скорости ветра. Ночью, в пасмурную погоду, а также при ветре 12 м/с и более поправка равна нулю.
P - Атмосферное давление - приведенное к уровню моря атмосферное давление.
Po - Атмосферное давление - измеренное на уровне метеостанции атмосферное давление.
Tmin - Минимальная температура - минимум температуры воздуха на высоте 2 м над землей.
Tmax - Максимальная температура - максимум температуры воздуха на высоте 2 м над землей.
R - Количество осадков - Количество выпавших осадков за период времени, мм. При наведении курсора мыши на число - период времени, за который выпало указанное количество осадков.
R24 - Количество осадков - Количество выпавших осадков за 24 часа, мм.
S - Снежный покров - Высота снежного покрова, см. При наведении курсора мыши на число - состояние снежного покрова и степень покрытия местности в баллах.